Adelaide, Australia

8:53 AM ACDT on January 17, 2017 (GMT +1030)
Adelaide International

Weather History for YPAD - October, 2012

Change the Weather History Date:

Wednesday, October 24, 2012

  Actual Average Record
Temperature  
Mean Temperature 71 °F -  
Max Temperature 82 °F 74 °F 91 °F (2015)
Min Temperature 60 °F 53 °F 42 °F (2016)
Cooling Degree Days 6    
Growing Degree Days 21 (Base 50)    
Moisture  
Dew Point 41 °F    
Average Humidity 39    
Maximum Humidity 78    
Minimum Humidity 4    
Precipitation  
Precipitation 0.00 in 0.03 in - ()
Sea Level Pressure  
Sea Level Pressure 29.87 in    
Wind  
Wind Speed 10 mph ()    
Max Wind Speed 23 mph    
Max Gust Speed 31 mph    
Visibility 9.9 miles    
Events      
Averages and records for this station are not official NWS values.
T = Trace of Precipitation, MM = Missing Value Source: Averaged Metar Reports

Daily Weather History Graph

Daily Weather History Graph

Search for Another Location

Airport or City:

Trip Planner

Search our weather history database for the weather conditions in past years. The results will help you decide how hot, cold, wet, or windy it might be!

Date:

Astronomy

Oct. 24, 2012 Rise Set
Actual Time 6:22 AM ACDT 7:38 PM ACDT
Civil Twilight 5:56 AM ACDT 8:04 PM ACDT
Nautical Twilight 5:24 AM ACDT 8:36 PM ACDT
Astronomical Twilight 4:52 AM ACDT 9:08 PM ACDT
Moon 2:29 PM ACDT (10/24) 2:56 AM ACDT (10/24)
Length of Visible Light 14h 08m
Length of Day
13h 15m
Waxing Gibbous, 70% of the Moon is Illuminated
Oct 24
Waxing Gibbous
Oct 30
Full
Nov 7
Last Quarter
Nov 14
New
Nov 21
First Quarter

Hourly Weather History & Observations

Time (ACDT) Temp. Dew Point Humidity Pressure Visibility Wind Dir Wind Speed Gust Speed Precip Events Conditions
12:00 AM 71.6 °F 23.0 °F 16% 29.89 in - NE 9.2 mph - N/A   Clear
12:30 AM 75.2 °F 17.6 °F 11% 29.89 in - NE 10.4 mph - N/A   Clear
1:00 AM 78.8 °F 10.4 °F 7% 29.86 in - NE 11.5 mph - N/A   Clear
1:30 AM 77 °F 14 °F 4% 29.87 in - NE 10.4 mph - -  
1:30 AM 77.0 °F 14.0 °F 9% 29.86 in - NE 10.4 mph - N/A   Clear
2:00 AM 71.6 °F 19.4 °F 14% 29.86 in - NE 12.7 mph - N/A   Clear
2:30 AM 75.2 °F 17.6 °F 11% 29.86 in - NE 10.4 mph - N/A   Clear
3:00 AM 75 °F 17 °F 4% 29.86 in 19 mi NE 10.4 mph - -   Partly Cloudy
3:00 AM 75.2 °F 15.8 °F 11% 29.83 in - NE 10.4 mph - N/A   Clear
3:30 AM 75.2 °F 15.8 °F 11% 29.83 in - NE 10.4 mph - N/A   Clear
4:00 AM 75.2 °F 15.8 °F 11% 29.83 in - NNE 11.5 mph - N/A   Clear
4:30 AM 74 °F 20 °F 6% 29.86 in - NNE 10.4 mph - -  
4:30 AM 73.4 °F 19.4 °F 13% 29.86 in - NNE 10.4 mph - N/A   Clear
5:00 AM 68.0 °F 44.6 °F 43% 29.89 in - WNW 10.4 mph - N/A   Clear
5:30 AM 64.4 °F 42.8 °F 45% 29.89 in - North 8.1 mph - N/A   Clear
6:00 AM 69 °F 29 °F 12% 29.89 in 19 mi NE 12.7 mph - -   Partly Cloudy
6:00 AM 69.8 °F 28.4 °F 21% 29.89 in - NE 12.7 mph - N/A   Clear
6:30 AM 69.8 °F 26.6 °F 20% 29.89 in - NE 10.4 mph - N/A   Clear
7:00 AM 68.0 °F 44.6 °F 43% 29.92 in - WSW 5.8 mph - N/A   Clear
7:30 AM 66 °F 47 °F 38% 29.94 in - NNE 4.6 mph - -  
7:30 AM 66.2 °F 46.4 °F 49% 29.92 in - NNE 4.6 mph - N/A   Clear
8:00 AM 66.2 °F 46.4 °F 49% 29.92 in - ENE 4.6 mph - N/A   Clear
8:30 AM 69.8 °F 39.2 °F 33% 29.92 in - ENE 10.4 mph - N/A   Clear
9:00 AM 73 °F 32 °F 13% 29.95 in 19 mi NE 8.1 mph - -   Partly Cloudy
9:00 AM 73.4 °F 32.0 °F 22% 29.95 in - NE 8.1 mph - N/A   Clear
9:30 AM 77.0 °F 28.4 °F 17% 29.95 in - NE 11.5 mph - N/A   Clear
10:00 AM 78.8 °F 26.6 °F 15% 29.92 in - NNE 13.8 mph - N/A   Clear
10:30 AM 79 °F 30 °F 9% 29.93 in - NNE 11.5 mph - -  
10:30 AM 78.8 °F 30.2 °F 17% 29.92 in - NNE 11.5 mph - N/A   Clear
11:00 AM 80.6 °F 28.4 °F 15% 29.92 in - North 9.2 mph - N/A   Clear
11:30 AM 80.6 °F 39.2 °F 23% 29.89 in - North 6.9 mph - N/A   Clear
12:00 PM 81 °F 48 °F 21% 29.89 in 19 mi West 8.1 mph - -   Partly Cloudy
12:00 PM 80.6 °F 48.2 °F 32% 29.89 in - West 8.1 mph - N/A   Clear
12:30 PM 80.6 °F 48.2 °F 32% 29.89 in - WNW 6.9 mph - N/A   Clear
1:00 PM 80.6 °F 50.0 °F 34% 29.86 in - West 6.9 mph - N/A   Clear
1:30 PM 82 °F 48 °F 21% 29.85 in - North 6.9 mph - -  
1:30 PM 82.4 °F 48.2 °F 30% 29.83 in - North 6.9 mph - N/A   Clear
2:00 PM 82.4 °F 48.2 °F 30% 29.80 in - North 6.9 mph - N/A   Clear
2:30 PM 82.4 °F 46.4 °F 28% 29.80 in - NNE 13.8 mph - N/A   Clear
3:00 PM 82 °F 45 °F 17% 29.80 in 19 mi North 11.5 mph - -   Mostly Cloudy
3:00 PM 82.4 °F 44.6 °F 26% 29.80 in - North 11.5 mph - N/A   Clear
3:30 PM 82.4 °F 46.4 °F 28% 29.74 in - North 8.1 mph - N/A   Clear
4:08 PM 71.6 °F 53.6 °F 53% 29.77 in - West 17.3 mph 28.8 mph N/A   Clear
4:30 PM 68 °F 55 °F 54% 29.79 in - West 20.7 mph - -  
4:30 PM 68.0 °F 55.4 °F 64% 29.77 in - West 20.7 mph - N/A   Clear
5:00 PM 68.0 °F 59.0 °F 73% 29.80 in - WSW 16.1 mph - N/A   Clear
5:30 PM 66.2 °F 59.0 °F 78% 29.83 in - SE 6.9 mph - N/A   Clear
6:00 PM 68 °F 59 °F 64% 29.83 in 12 mi WSW 12.7 mph - -   Haze
6:00 PM 68.0 °F 59.0 °F 73% 29.80 in 6.2 mi WSW 12.7 mph - N/A   Mostly Cloudy
6:30 PM 68.0 °F 59.0 °F 73% 29.83 in 6.2 mi West 18.4 mph - N/A   Mostly Cloudy
7:00 PM 66.2 °F 59.0 °F 78% 29.86 in 6.2 mi West 10.4 mph - N/A   Mostly Cloudy
7:30 PM 65 °F 58 °F 71% 29.88 in - West 18.4 mph - -  
7:30 PM 64.4 °F 57.2 °F 77% 29.86 in 6.2 mi West 18.4 mph - N/A   Mostly Cloudy
8:00 PM 64.4 °F 57.2 °F 77% 29.86 in 6.2 mi WNW 11.5 mph - N/A   Mostly Cloudy
8:30 PM 62.6 °F 55.4 °F 77% 29.89 in 6.2 mi NW 9.2 mph - N/A   Mostly Cloudy
9:00 PM 63 °F 55 °F 69% 29.90 in 11 mi NNW 10.4 mph - -   Haze
9:00 PM 62.6 °F 55.4 °F 77% 29.89 in - NNW 10.4 mph - N/A   Clear
9:30 PM 64.4 °F 55.4 °F 73% 29.89 in 6.2 mi NNW 9.2 mph - N/A   Mostly Cloudy
9:48 PM 64.4 °F 53.6 °F 68% 29.89 in 6.2 mi WNW 17.3 mph - N/A   Mostly Cloudy
10:00 PM 62.6 °F 53.6 °F 72% 29.89 in 6.2 mi WNW 23.0 mph - N/A   Mostly Cloudy
10:30 PM 63 °F 54 °F 66% 29.91 in - WNW 16.1 mph - -  
10:30 PM 62.6 °F 53.6 °F 72% 29.89 in 6.2 mi WNW 16.1 mph - N/A   Mostly Cloudy
11:00 PM 62.6 °F 55.4 °F 77% 29.89 in 6.2 mi WNW 17.3 mph - N/A   Mostly Cloudy
11:30 PM 60.8 °F 53.6 °F 77% 29.89 in 6.2 mi West 20.7 mph - N/A   Mostly Cloudy
11:36 PM 60.8 °F 53.6 °F 77% 29.89 in 6.2 mi West 17.3 mph 31.1 mph N/A   Mostly Cloudy